Regional Weather Roundup
Issued by NWS

Home | Current Version | Previous Version | Graphics & Text | Print | Product List | Glossary On
Versions: 1 2 3 4 5 6 7 8 9 10 11 12 13 14 15 16 17 18 19 20 21 22 23 24 25 26 27 28 29 30 31 32 33 34 35 36 37 38 39 40 41 42 43 44 45 46 47 48 49 50
000
ASUS43 KLSX 261610
RWRMO

WEATHER SUMMARY FOR MISSOURI
NATIONAL WEATHER SERVICE SPRINGFIELD MO
1100 AM CDT TUE JUL 26 2016

NOTE: "FAIR" INDICATES FEW OR NO CLOUDS BELOW 12,000 FEET WITH NO
       SIGNIFICANT WEATHER AND/OR OBSTRUCTIONS TO VISIBILITY.
       CURRENT SKY AND/OR WEATHER CONDITIONS ARE NOT AVAILABLE FOR
       CHILLICOTHE AND FARMINGTON.

MOZ001>031-035>038-043-044-053-054-261700-
...NORTHERN AND WESTERN MISSOURI...

CITY           SKY/WX    TMP DP  RH WIND       PRES   REMARKS
KANSAS CTY INT PTSUNNY   81  67  62 E9        30.08S
KANSAS C DTWN  MOSUNNY   84  66  54 E13       30.06S
LEE`S SUMMIT   MOSUNNY   81  68  64 NE8       30.08S
ST JOSEPH      MOSUNNY   82  68  62 SE6       30.07F
CHILLICOTHE      N/A     83  66  56 VRB5      30.09S
KIRKSVILLE     PTSUNNY   83  63  50 E9        30.09F

$$
MOZ066>068-077>081-088>096-101>105-261700-
...SOUTHWEST MISSOURI...

CITY           SKY/WX    TMP DP  RH WIND       PRES   REMARKS
SPRINGFIELD    CLOUDY    84  72  67 VRB5      30.05R
JOPLIN         CLOUDY    81  74  79 NE6       30.03S
BRANSON        PTSUNNY   77  72  83 NE5       30.07R

$$
MOZ032>034-039>042-045>050-055>058-069>072-261700-
...CENTRAL MISSOURI...

CITY           SKY/WX    TMP DP  RH WIND       PRES   REMARKS
COLUMBIA       SUNNY     82  72  71 NE8       30.06S
JEFFERSON CITY SUNNY     83  73  72 CALM      30.05R
ROLLA          PTSUNNY   81  74  79 CALM      30.05S
SEDALIA        MOSUNNY   82  71  69 E5        30.07F
OSAGE BEACH    CLOUDY    81  75  83 NE5       30.06S

$$
MOZ051-052-059>065-261700-
...EAST CENTRAL MISSOURI...

CITY           SKY/WX    TMP DP  RH WIND       PRES   REMARKS
ST LOUIS INTL  MOSUNNY   84  73  69 E3        30.04F HX  90
SPIRIT OF STL  PTSUNNY   84  76  76 VRB7      30.02S HX  93
ST CHARLES     MOSUNNY   84  75  74 E6        30.03S HX  92

$$
MOZ072>076-082>087-097>100-106>115-261700-
...SOUTH CENTRAL AND SOUTHEAST MISSOURI...

CITY           SKY/WX    TMP DP  RH WIND       PRES   REMARKS
CAPE GIRARDEAU MOSUNNY   86  76  71 W3        30.02S HX  96
FARMINGTON     RAIN      81  75  83 NW8       30.06R
POPLAR BLUFF   SUNNY     87  74  64 CALM      30.01S HX  95
WEST PLAINS    CLOUDY    83  74  74 VRB5      30.07S

$$




USA.gov is the U.S. government's official web portal to all federal, state and local government web resources and services.